[[{"header":{"parameterUnit":"m.s-1","parameterCategory":2,"la1":30.2991,"la2":30.254,"lo1":-89.0895,"lo2":-89.0444,"dy":0.0017,"dx":0.0017,"nx":28,"ny":28,"refTime":"2023-10-05T09:00:00:Z","depth":"0","parameterNumber":2,"parameterNumberName":"U-component_of_CURRENTS"},"data":[0,0,0,0,0,0,0,0,0,0,0,0,0,0,0,0,0,0,0,0,0,0,0,0,0,0,0,0,0,0,0,0,0,0,0,0,0,0,0,0,0,0,0,0,0,0,0,0,0,0,0,0,0,0,0,0,0,0,0.1732,0.1732,0,0.173,0.173,0.173,0.1717,0.1717,0.1717,0.1717,0.1686,0.1685,0.1685,0,0,0,0,0,0,0,0,0,0,0,0,0,0.1756,0.1755,0.1732,0.1732,0.1732,0.1731,0.173,0.173,0.1717,0.1717,0.1717,0.1717,0.1687,0.1686,0.1685,0,0,0,0,0,0,0,0,0,0,0,0,0,0.1745,0.1755,0.1732,0.1729,0.1729,0.1731,0.173,0.173,0.1717,0.1717,0.1717,0.1717,0.1687,0.1686,0.1684,0.1675,0,0,0.168,0.168,0,0,0,0,0,0,0,0,0.1746,0.1744,0.1729,0.1729,0.1729,0.1727,0.1728,0.1711,0.1717,0.1717,0.1717,0.1717,0.17,0.1697,0.1692,0.1674,0.1673,0.168,0.168,0.1679,0.1679,0,0,0,0,0,0,0,0.1747,0.1744,0.1727,0.1729,0.1729,0.1739,0.1737,0.1725,0.1705,0.1717,0.1717,0.1723,0.1699,0.1693,0.1691,0.1672,0.168,0.1679,0.1678,0.1678,0.1669,0.1669,0,0,0,0,0,0,0.1753,0.1745,0.1727,0.1728,0.1742,0.1739,0.1736,0.1725,0.1705,0.1704,0.1723,0.1723,0.1695,0.1693,0.169,0.1696,0.1679,0.1678,0.1677,0.1668,0.1669,0.1669,0,0,0,0,0,0,0.1753,0.175,0.1727,0.1741,0.1739,0.1738,0.1726,0.1725,0.1723,0.1711,0.1708,0.1724,0.1695,0.1692,0.1687,0.1695,0.1677,0.1676,0.1668,0.1668,0.1669,0.1698,0,0,0,0,0,0,0.1753,0.175,0.1741,0.174,0.1738,0.1725,0.1726,0.1725,0.1729,0.1728,0.1711,0.1708,0.1695,0.1689,0.1685,0.1692,0.1675,0.1667,0.1668,0.1669,0.1696,0.1699,0.1702,0,0,0,0,0,0.1754,0.1735,0.174,0.1739,0.1726,0.1726,0.1725,0.1723,0.1729,0.1723,0.1721,0.1708,0.1693,0.1688,0.1684,0.1691,0.1667,0.1668,0.1669,0.1695,0.1699,0.1702,0,0,0,0,0,0,0.1734,0.1733,0.1738,0.1718,0.1725,0.1725,0.1719,0.1727,0.1721,0.1718,0.1712,0.1708,0.1709,0.1696,0.1691,0.1692,0.1679,0.1679,0.17,0.1704,0.1707,0.1719,0.1674,0,0,0,0,0,0.173,0.1718,0.1725,0.1711,0.1713,0.172,0.1721,0.1722,0.1721,0.1718,0.1713,0.1709,0.171,0.1704,0.1697,0.1693,0.1708,0.1696,0.17,0.1702,0.171,0.174,0.1747,0.1673,0.1673,0.1673,0,0,0.1719,0.1719,0.1711,0.1708,0.171,0.171,0.1719,0.1716,0.1724,0.1715,0.1716,0.1717,0.1712,0.1712,0.1711,0.1702,0.1733,0.1704,0.1706,0.1713,0.1742,0.1749,0.1756,0.1674,0.1674,0.1674,0,0,0.1694,0.1691,0.1675,0.1683,0.1691,0.1699,0.1703,0.1708,0.1715,0.172,0.1724,0.1734,0.1723,0.1729,0.1729,0.1745,0.1751,0.1741,0.1762,0.1791,0.1797,0.1803,0.1844,0.1853,0.1739,0.174,0.174,0,0.1683,0.1667,0.1672,0.1667,0.1678,0.1697,0.1695,0.1704,0.1711,0.1728,0.172,0.1742,0.1733,0.1755,0.1763,0.1752,0.1775,0.1748,0.1796,0.1802,0.1807,0.1848,0.1857,0.1741,0.1741,0.1741,0.1741,0,0.1648,0.1646,0.1639,0.1643,0.1652,0.1654,0.1677,0.1692,0.1711,0.1728,0.1757,0.1756,0.1773,0.1773,0.1771,0.181,0.1817,0.18,0.1788,0.1817,0.1857,0.1867,0.1743,0.1743,0.1742,0.1742,0,0,0.1599,0.1613,0.1612,0.1626,0.1645,0.1652,0.1674,0.1707,0.1738,0.1748,0.1789,0.1796,0.1812,0.1816,0.182,0.1844,0.1904,0.1841,0.1842,0.1885,0.1986,0.1975,0.1985,0.1898,0.1899,0.19,0.2003,0,0.1577,0.1571,0.1585,0.1597,0.1602,0.1642,0.1666,0.1701,0.1738,0.1781,0.1806,0.1836,0.1824,0.184,0.1864,0.1897,0.1929,0.1879,0.1948,0.1951,0.194,0.1995,0.1802,0.1876,0.2012,0.2014,0.2015,0,0.1537,0.1547,0.1547,0.1597,0.1603,0.1613,0.168,0.1708,0.1776,0.1809,0.185,0.1873,0.1921,0.1899,0.1974,0.1946,0.1972,0.1992,0.1996,0.1983,0.1958,0.1866,0.1888,0.1801,0.203,0.2029,0.2028,0,0.1505,0.1527,0.1534,0.1545,0.1592,0.1611,0.1645,0.171,0.1751,0.1832,0.1874,0.1925,0.1963,0.1999,0.2043,0.2016,0.2129,0.2092,0.211,0.211,0.1958,0.1942,0.1903,0.2148,0.2148,0.2147,0.2147,0,0.1478,0.1487,0.152,0.1523,0.155,0.1592,0.1637,0.1689,0.1763,0.1818,0.1885,0.1934,0.1991,0.2056,0.2077,0.2139,0.2159,0.2136,0.214,0.1964,0.1948,0.1874,0.1837,0.2151,0.215,0.215,0.2149,0,0.1438,0.1457,0.1471,0.1515,0.153,0.155,0.162,0.1657,0.1744,0.1822,0.185,0.1959,0.2048,0.211,0.2186,0.219,0.215,0.2252,0.2053,0.2033,0.195,0.1922,0.186,0.1803,0.2286,0.2286,0.2287,0,0.1416,0.1417,0.1454,0.1463,0.1479,0.1517,0.1544,0.163,0.1678,0.1828,0.1862,0.1982,0.2047,0.2178,0.2187,0.2243,0.2161,0.2123,0.203,0.1942,0.1913,0.1837,0.1787,0.1843,0.184,0.1837,0.1835,0,0.1385,0.1395,0.1408,0.1423,0.1441,0.1474,0.1525,0.1555,0.167,0.1736,0.1833,0.1897,0.2025,0.2,0.2099,0.2096,0.1956,0.2072,0.2008,0.16,0.1483,0.1429,0.1803,0.1811,0.1814,0.1815,0.1817,0.1818,0.1364,0.1361,0.1375,0.1383,0.1402,0.1421,0.1425,0.1486,0.1539,0.1615,0.1722,0.1765,0.1795,0.1887,0.1898,0.1775,0.1823,0.1669,0.1658,0.1605,0.1486,0.1837,0.1834,0.1836,0.1838,0.184,0.1842,0,0.1335,0.1333,0.1339,0.1338,0.1328,0.1362,0.1401,0.1394,0.1411,0.1486,0.153,0.1513,0.1476,0.1506,0.1426,0.1351,0.1261,0.1295,0.1095,0.1083,0.1399,0.1314,0.1162,0.1162,0.1162,0.1162,0.1162,0.1162,0.1325,0.1306,0.1298,0.1259,0.1256,0.1229,0.1231,0.123,0.1262,0.1242,0.1219,0.1239,0.1252,0.1142,0.102,0.0978,0.0874,0.0784,0.0881,0.1036,0.1068,0.1098,0.1009,0.0795,0.0795,0.0433,0.043,0.0428]},{"header":{"parameterUnit":"m.s-1","parameterCategory":2,"la1":30.2991,"la2":30.254,"lo1":-89.0895,"lo2":-89.0444,"dy":0.0017,"dx":0.0017,"nx":28,"ny":28,"refTime":"2023-10-05T09:00:00:Z","depth":"0","parameterNumber":3,"parameterNumberName":"V-component_of_CURRENTS"},"data":[0,0,0,0,0,0,0,0,0,0,0,0,0,0,0,0,0,0,0,0,0,0,0,0,0,0,0,0,0,0,0,0,0,0,0,0,0,0,0,0,0,0,0,0,0,0,0,0,0,0,0,0,0,0,0,0,0,0,-0.0101,-0.0102,0,-0.0189,-0.019,-0.0191,-0.0246,-0.0246,-0.0246,-0.0247,-0.0337,-0.0339,-0.0341,0,0,0,0,0,0,0,0,0,0,0,0,0,-0.0041,-0.0041,-0.0101,-0.0102,-0.0103,-0.0189,-0.019,-0.0192,-0.0246,-0.0246,-0.0247,-0.0247,-0.0336,-0.0339,-0.0341,0,0,0,0,0,0,0,0,0,0,0,0,0,-0.0092,-0.0041,-0.0101,-0.014,-0.0145,-0.0189,-0.0191,-0.0192,-0.0246,-0.0246,-0.0247,-0.0247,-0.0336,-0.0339,-0.0342,-0.0353,0,0,-0.0352,-0.0353,0,0,0,0,0,0,0,0,-0.0089,-0.0094,-0.0133,-0.0138,-0.0143,-0.0207,-0.0203,-0.0246,-0.0246,-0.0207,-0.0247,-0.0247,-0.0293,-0.03,-0.0316,-0.0357,-0.0361,-0.0352,-0.0354,-0.0355,-0.0356,0,0,0,0,0,0,0,-0.0085,-0.0091,-0.0136,-0.0135,-0.014,-0.0175,-0.0182,-0.0211,-0.0247,-0.0211,-0.0215,-0.0225,-0.0296,-0.0313,-0.0318,-0.0362,-0.0352,-0.0355,-0.0357,-0.0358,-0.0447,-0.0447,0,0,0,0,0,0,-0.007,-0.0087,-0.0133,-0.0138,-0.0116,-0.0176,-0.0184,-0.0186,-0.0247,-0.0256,-0.0224,-0.0227,-0.0307,-0.0314,-0.0322,-0.0348,-0.0355,-0.0358,-0.036,-0.0446,-0.0447,-0.0447,0,0,0,0,0,0,-0.0069,-0.0073,-0.0129,-0.0115,-0.0125,-0.0176,-0.0178,-0.0188,-0.0205,-0.0257,-0.0267,-0.0233,-0.0307,-0.0317,-0.0351,-0.0352,-0.036,-0.0363,-0.0446,-0.0447,-0.0447,-0.0395,0,0,0,0,0,0,-0.0066,-0.0072,-0.0067,-0.0114,-0.0125,-0.0147,-0.0178,-0.0189,-0.0211,-0.0215,-0.0267,-0.0276,-0.0309,-0.0346,-0.0355,-0.0356,-0.0365,-0.0445,-0.0446,-0.0447,-0.0397,-0.0394,-0.0392,0,0,0,0,0,-0.0064,-0.0053,-0.0066,-0.0072,-0.0117,-0.0147,-0.0156,-0.0194,-0.0211,-0.0213,-0.0255,-0.0275,-0.0358,-0.0349,-0.0359,-0.0361,-0.0445,-0.0446,-0.0447,-0.0398,-0.0395,-0.0392,0,0,0,0,0,0,-0.0022,-0.006,-0.0075,-0.0075,-0.0105,-0.0156,-0.0161,-0.0189,-0.0225,-0.0227,-0.0279,-0.029,-0.0322,-0.035,-0.0339,-0.0392,-0.0405,-0.0408,-0.0365,-0.0362,-0.036,-0.0332,-0.0368,0,0,0,0,0,-0.0011,-0.0014,-0.0055,-0.0055,-0.0065,-0.0112,-0.0129,-0.0154,-0.0192,-0.0209,-0.0248,-0.0292,-0.0333,-0.0353,-0.0389,-0.0414,-0.0421,-0.0424,-0.0422,-0.042,-0.0405,-0.0428,-0.0426,-0.0451,-0.0451,-0.0451,0,0,0.0006,-0.0015,-0.0017,-0.0047,-0.0071,-0.0083,-0.0123,-0.0139,-0.0153,-0.0212,-0.0238,-0.0283,-0.0338,-0.037,-0.0386,-0.0393,-0.0414,-0.0421,-0.0418,-0.0404,-0.0429,-0.0427,-0.0424,-0.0451,-0.0451,-0.0451,0,0,0.0033,0.0021,0.0024,0.0005,-0.0027,-0.0055,-0.0057,-0.0104,-0.0126,-0.0157,-0.0208,-0.0252,-0.0307,-0.0351,-0.0381,-0.0388,-0.0402,-0.0402,-0.0368,-0.0391,-0.0389,-0.0387,-0.0376,-0.0373,-0.0401,-0.0401,-0.0401,0,0.0053,0.005,0.002,0.0017,0.0006,-0.0038,-0.0038,-0.0066,-0.012,-0.0136,-0.0155,-0.0249,-0.0298,-0.0346,-0.0353,-0.0381,-0.0382,-0.0371,-0.0386,-0.0384,-0.0383,-0.0372,-0.037,-0.0399,-0.0399,-0.0399,-0.04,0,0.0075,0.0074,0.0078,0.006,0.0046,0.0042,0.0003,-0.0012,-0.0044,-0.008,-0.0127,-0.0197,-0.0252,-0.0282,-0.0321,-0.0345,-0.0343,-0.0377,-0.0385,-0.0377,-0.0367,-0.0365,-0.0395,-0.0396,-0.0397,-0.0398,0,0,0.0114,0.0097,0.0098,0.0097,0.0069,0.006,0.0051,0.0021,0.0016,-0.0039,-0.0055,-0.0143,-0.0179,-0.0215,-0.0274,-0.0301,-0.03,-0.0328,-0.0331,-0.0302,-0.0318,-0.0274,-0.0269,-0.0333,-0.0333,-0.0333,-0.0307,0,0.0139,0.0146,0.0128,0.0138,0.0139,0.0109,0.0103,0.0074,0.0042,0.0019,-0.0054,-0.0093,-0.0154,-0.018,-0.0217,-0.0283,-0.0296,-0.0301,-0.0343,-0.0343,-0.0294,-0.0266,-0.0211,-0.018,-0.0306,-0.0306,-0.0305,0,0.0162,0.0164,0.0179,0.0176,0.0175,0.0177,0.0167,0.0155,0.0115,0.0092,0.0046,-0.0009,-0.0065,-0.0116,-0.0196,-0.0193,-0.0242,-0.0288,-0.0289,-0.0263,-0.0297,-0.0214,-0.0173,-0.021,-0.0303,-0.0304,-0.0304,0,0.0197,0.0199,0.0214,0.0213,0.0203,0.021,0.0206,0.0179,0.0179,0.0143,0.0145,0.0065,0.0036,-0.0042,-0.0137,-0.0165,-0.0205,-0.0263,-0.0261,-0.0258,-0.0226,-0.0219,-0.0212,-0.0301,-0.0301,-0.0301,-0.0301,0,0.0225,0.0237,0.0235,0.0244,0.0268,0.025,0.0273,0.0258,0.0249,0.0265,0.0189,0.0192,0.0053,0.0006,-0.009,-0.0149,-0.0167,-0.0232,-0.0247,-0.0205,-0.0197,-0.0242,-0.0285,-0.03,-0.0301,-0.0301,-0.0301,0,0.0255,0.0253,0.0272,0.0277,0.0285,0.0303,0.0325,0.0338,0.0331,0.0357,0.0354,0.0295,0.0248,0.013,0.0014,-0.007,-0.016,-0.0167,-0.0085,-0.0091,-0.0132,-0.0174,-0.0176,-0.0214,-0.0158,-0.0157,-0.0156,0,0.027,0.0283,0.0304,0.0321,0.0327,0.0355,0.0376,0.0378,0.0402,0.0428,0.0448,0.0418,0.0411,0.0281,0.0138,0.002,-0.0081,-0.0026,-0.0083,-0.0098,-0.0158,-0.0194,-0.0231,-0.0016,-0.0014,-0.0012,-0.0011,0,0.0297,0.0306,0.032,0.036,0.0389,0.0422,0.0459,0.0495,0.0515,0.0556,0.0606,0.0612,0.0522,0.0431,0.0275,0.0175,-0.0033,0.0006,-0.0044,-0.0059,-0.0063,-0.0118,-0.0051,0.0005,0.0003,0.0002,0.0001,0.0001,0.032,0.0336,0.036,0.0396,0.0432,0.0484,0.052,0.0576,0.0642,0.0707,0.0725,0.0757,0.0651,0.0456,0.0334,0.0152,0.0092,0.0073,0.0022,-0.0013,-0.0044,0.0085,0.0138,0.0137,0.0137,0.0136,0.0135,0,0.0343,0.036,0.0394,0.0436,0.0476,0.0494,0.0566,0.0609,0.0702,0.0781,0.084,0.0834,0.0719,0.054,0.032,0.0187,0.0092,0.01,0.0049,0.0003,0.0101,0.0112,0.0206,0.0206,0.0206,0.0206,0.0206,0.0206,0.0355,0.0385,0.0398,0.0461,0.0495,0.055,0.0592,0.0673,0.0741,0.0832,0.0869,0.089,0.08,0.0481,0.0247,0.017,0.0026,0.0039,-0.007,-0.0009,-0.0016,-0.0023,-0.0022,0.0042,0.0042,-0.0138,-0.014,-0.0141]}],[{"header":{"parameterUnit":"m.s-1","parameterCategory":2,"la1":30.2991,"la2":30.254,"lo1":-89.0895,"lo2":-89.0444,"dy":0.0017,"dx":0.0017,"nx":28,"ny":28,"refTime":"2023-10-05T09:00:00:Z","depth":"2","parameterNumber":2,"parameterNumberName":"U-component_of_CURRENTS"},"data":[0,0,0,0,0,0,0,0,0,0,0,0,0,0,0,0,0,0,0,0,0,0,0,0,0,0,0,0,0,0,0,0,0,0,0,0,0,0,0,0,0,0,0,0,0,0,0,0,0,0,0,0,0,0,0,0,0,0,0.1641,0.1641,0,0.1667,0.1667,0.1668,0.1747,0.1749,0.1751,0.1752,0.1823,0.1823,0.1823,0,0,0,0,0,0,0,0,0,0,0,0,0,0.1623,0.1624,0.1641,0.1641,0.1641,0.1667,0.1667,0.1668,0.1747,0.1749,0.1751,0.1753,0.1823,0.1823,0.1823,0,0,0,0,0,0,0,0,0,0,0,0,0,0.1638,0.1624,0.1641,0.1684,0.1688,0.1667,0.1667,0.1668,0.1746,0.1749,0.1752,0.1754,0.1823,0.1823,0.1823,0.1773,0,0,0.1824,0.1824,0,0,0,0,0,0,0,0,0.1637,0.1639,0.1677,0.1681,0.1686,0.1707,0.1687,0.1705,0.1746,0.1724,0.1752,0.1756,0.1786,0.179,0.1788,0.1776,0.1779,0.1824,0.1825,0.1825,0.1825,0,0,0,0,0,0,0,0.1636,0.1638,0.1651,0.1677,0.1682,0.169,0.1695,0.1691,0.1741,0.1726,0.1732,0.1734,0.1789,0.1787,0.179,0.178,0.1824,0.1825,0.1825,0.1825,0.1891,0.1892,0,0,0,0,0,0,0.1632,0.1637,0.165,0.1652,0.1668,0.1688,0.1694,0.1697,0.174,0.1749,0.1732,0.1738,0.1785,0.179,0.1793,0.1857,0.1825,0.1825,0.1825,0.1889,0.1891,0.1892,0,0,0,0,0,0,0.1632,0.1633,0.1649,0.1645,0.1648,0.1686,0.1688,0.1696,0.1715,0.1744,0.1754,0.1745,0.1788,0.1793,0.1831,0.1856,0.1825,0.1826,0.1887,0.189,0.1892,0.1908,0,0,0,0,0,0,0.1631,0.1632,0.1634,0.1645,0.1648,0.1652,0.1686,0.1695,0.1711,0.172,0.1758,0.1766,0.179,0.1831,0.1832,0.1856,0.1826,0.1885,0.1888,0.1891,0.1905,0.191,0.1914,0,0,0,0,0,0.163,0.1625,0.1633,0.1635,0.1648,0.1652,0.1654,0.169,0.1709,0.1716,0.1761,0.1766,0.1851,0.1832,0.1832,0.1858,0.1884,0.1887,0.1891,0.1903,0.1909,0.1914,0,0,0,0,0,0,0.162,0.1633,0.1643,0.1642,0.1652,0.1666,0.1675,0.1687,0.1722,0.1741,0.1771,0.1782,0.1832,0.1837,0.1815,0.1889,0.1872,0.1876,0.1882,0.1887,0.1892,0.1887,0.1826,0,0,0,0,0,0.1614,0.1616,0.1627,0.1627,0.1634,0.1651,0.1656,0.1678,0.1706,0.1724,0.1753,0.1795,0.1838,0.1858,0.1889,0.1906,0.1913,0.193,0.1935,0.1939,0.1938,0.196,0.1966,0.1904,0.1904,0.1904,0,0,0.1609,0.1616,0.1618,0.1625,0.1638,0.1647,0.1663,0.1676,0.1696,0.1723,0.1768,0.1806,0.1848,0.1896,0.1917,0.1906,0.1965,0.1943,0.1946,0.1943,0.1965,0.197,0.1975,0.1906,0.1906,0.1905,0,0,0.1601,0.161,0.1611,0.1619,0.1637,0.1647,0.1651,0.1673,0.1703,0.1733,0.1781,0.1836,0.1872,0.1925,0.1952,0.1992,0.199,0.2003,0.2017,0.2039,0.2044,0.2048,0.2078,0.2085,0.2003,0.2003,0.2003,0,0.1598,0.1601,0.1611,0.1617,0.163,0.1649,0.1659,0.1679,0.1714,0.1747,0.1757,0.1861,0.1891,0.1969,0.1996,0.2002,0.2011,0.199,0.2043,0.2047,0.2051,0.2081,0.2088,0.2005,0.2004,0.2004,0.2004,0,0.1591,0.1599,0.1602,0.162,0.1632,0.1643,0.1672,0.1699,0.1731,0.1762,0.1844,0.1894,0.196,0.1983,0.2,0.2058,0.2056,0.2045,0.2022,0.2058,0.2088,0.2095,0.2006,0.2006,0.2006,0.2005,0,0,0.1573,0.1595,0.1597,0.161,0.1639,0.1646,0.1687,0.1732,0.1772,0.182,0.1881,0.1962,0.1995,0.2028,0.2064,0.2085,0.2127,0.2073,0.2074,0.2091,0.218,0.2092,0.2092,0.2117,0.2118,0.2118,0.2194,0,0.157,0.1578,0.1595,0.1613,0.1624,0.1663,0.17,0.1747,0.1796,0.1858,0.1931,0.1998,0.2011,0.2051,0.2077,0.2119,0.2144,0.2108,0.2152,0.2154,0.2061,0.2096,0.19,0.1942,0.22,0.2202,0.2202,0,0.1556,0.1567,0.158,0.1621,0.1633,0.1648,0.1718,0.1757,0.1849,0.1895,0.1974,0.2023,0.2101,0.2086,0.2169,0.2143,0.2162,0.2181,0.2184,0.2097,0.2078,0.1947,0.1945,0.2214,0.2213,0.2212,0.2211,0,0.153,0.1557,0.1569,0.158,0.1627,0.1653,0.169,0.1771,0.1822,0.1921,0.1974,0.206,0.212,0.2151,0.2209,0.2183,0.2283,0.2252,0.2198,0.2194,0.2033,0.2011,0.2295,0.2295,0.2294,0.2294,0.2294,0,0.1514,0.1523,0.1556,0.156,0.1591,0.1638,0.1691,0.1747,0.1839,0.1909,0.1993,0.2054,0.2132,0.2203,0.2226,0.2244,0.2303,0.2205,0.2203,0.2035,0.2013,0.2248,0.2241,0.2297,0.2296,0.2296,0.2295,0,0.148,0.1499,0.1513,0.1559,0.1574,0.1599,0.1678,0.1721,0.1819,0.1912,0.1948,0.2065,0.2146,0.223,0.2298,0.2266,0.2291,0.2285,0.2089,0.206,0.2181,0.2175,0.2206,0.2203,0.2201,0.2199,0.2198,0,0.1462,0.1464,0.1498,0.1507,0.1525,0.157,0.1604,0.1698,0.1753,0.191,0.1953,0.2067,0.2107,0.219,0.2183,0.2208,0.2286,0.202,0.1918,0.2175,0.217,0.2168,0.2165,0.1731,0.1725,0.1721,0.1718,0,0.1433,0.1444,0.1457,0.1472,0.1495,0.1526,0.1587,0.1621,0.1748,0.1813,0.19,0.1932,0.202,0.1929,0.1969,0.1954,0.199,0.1929,0.2264,0.177,0.1728,0.1724,0.1736,0.168,0.1683,0.1686,0.1688,0.169,0.1415,0.1413,0.1427,0.1435,0.1456,0.1474,0.148,0.1541,0.1592,0.1658,0.1752,0.173,0.1745,0.1668,0.1643,0.1642,0.1775,0.1668,0.168,0.1698,0.1616,0.1571,0.1479,0.1482,0.1484,0.1486,0.1488,0,0.1387,0.1386,0.1392,0.1392,0.1383,0.1418,0.1459,0.1444,0.1448,0.1487,0.1504,0.136,0.1266,0.1331,0.1251,0.1236,0.1226,0.1188,0.1158,0.1196,0.1229,0.1123,0.0856,0.0855,0.0853,0.0851,0,0,0.1377,0.136,0.1352,0.1315,0.1313,0.1287,0.1289,0.1266,0.1268,0.1202,0.1153,0.1172,0.1233,0.101,0.0992,0.0913,0.1047,0.0871,0.1374,0.1374,0.1406,0.1501,0.1379,0,0,0,0,0]},{"header":{"parameterUnit":"m.s-1","parameterCategory":2,"la1":30.2991,"la2":30.254,"lo1":-89.0895,"lo2":-89.0444,"dy":0.0017,"dx":0.0017,"nx":28,"ny":28,"refTime":"2023-10-05T09:00:00:Z","depth":"2","parameterNumber":3,"parameterNumberName":"V-component_of_CURRENTS"},"data":[0,0,0,0,0,0,0,0,0,0,0,0,0,0,0,0,0,0,0,0,0,0,0,0,0,0,0,0,0,0,0,0,0,0,0,0,0,0,0,0,0,0,0,0,0,0,0,0,0,0,0,0,0,0,0,0,0,0,0.0049,0.0049,0,0.0011,0.001,0.001,-0.0038,-0.0039,-0.004,-0.0041,-0.011,-0.0111,-0.0112,0,0,0,0,0,0,0,0,0,0,0,0,0,0.0098,0.0098,0.0049,0.0049,0.0048,0.0011,0.001,0.001,-0.0038,-0.0039,-0.004,-0.0041,-0.011,-0.0111,-0.0113,0,0,0,0,0,0,0,0,0,0,0,0,0,0.007,0.0097,0.0049,0.002,0.0017,0.0011,0.001,0.0009,-0.0038,-0.0039,-0.004,-0.0041,-0.0109,-0.0111,-0.0113,-0.01,0,0,-0.0118,-0.0119,0,0,0,0,0,0,0,0,0.0072,0.0068,0.0025,0.0022,0.0019,-0.001,0.0002,-0.0029,-0.0038,-0.0017,-0.0041,-0.0042,-0.0079,-0.0083,-0.0087,-0.0104,-0.0107,-0.0118,-0.0119,-0.012,-0.012,0,0,0,0,0,0,0,0.0074,0.007,0.0034,0.0024,0.0021,0.0014,0.0009,-0.0004,-0.0042,-0.0019,-0.0023,-0.0027,-0.0081,-0.0086,-0.0089,-0.0108,-0.0118,-0.012,-0.0121,-0.0121,-0.018,-0.018,0,0,0,0,0,0,0.0079,0.0072,0.0035,0.0033,0.0043,0.0014,0.0008,0.0,-0.0041,-0.0048,-0.0026,-0.0029,-0.0082,-0.0087,-0.0092,-0.0132,-0.012,-0.0121,-0.0122,-0.0179,-0.018,-0.018,0,0,0,0,0,0,0.008,0.0076,0.0037,0.0052,0.0046,0.0014,0.0006,0.0,-0.0014,-0.0046,-0.0054,-0.0035,-0.0083,-0.009,-0.0116,-0.0133,-0.0122,-0.0124,-0.0178,-0.0179,-0.018,-0.0179,0,0,0,0,0,0,0.0081,0.0076,0.0074,0.0052,0.0045,0.0025,0.0007,0.0,-0.0014,-0.0019,-0.0056,-0.0063,-0.0085,-0.0113,-0.0117,-0.0136,-0.0125,-0.0178,-0.0179,-0.018,-0.0178,-0.018,-0.0181,0,0,0,0,0,0.0083,0.0077,0.0074,0.007,0.0043,0.0025,0.0021,-0.0005,-0.0014,-0.0021,-0.0047,-0.0062,-0.0123,-0.0114,-0.012,-0.0139,-0.0177,-0.0179,-0.018,-0.0178,-0.018,-0.0181,0,0,0,0,0,0,0.0093,0.0071,0.0067,0.0054,0.004,0.0016,0.0007,-0.0003,-0.0027,-0.0034,-0.0062,-0.0071,-0.0101,-0.0116,-0.0106,-0.0159,-0.0155,-0.0157,-0.0152,-0.0153,-0.0155,-0.014,-0.0127,0,0,0,0,0,0.0098,0.0089,0.007,0.006,0.0053,0.0034,0.0025,0.001,-0.0013,-0.0025,-0.0053,-0.0082,-0.0106,-0.0127,-0.0147,-0.0171,-0.0173,-0.0189,-0.019,-0.0191,-0.0183,-0.0213,-0.0216,-0.0184,-0.0184,-0.0184,0,0,0.01,0.0087,0.0082,0.0063,0.005,0.0043,0.0025,0.0009,0.0005,-0.0028,-0.0051,-0.0082,-0.0111,-0.0143,-0.0159,-0.0162,-0.0198,-0.0193,-0.0193,-0.0185,-0.0214,-0.0218,-0.022,-0.0185,-0.0185,-0.0185,0,0,0.0101,0.0088,0.0083,0.0074,0.0057,0.0046,0.0043,0.0017,0.0003,-0.0014,-0.0045,-0.0084,-0.0117,-0.0152,-0.0169,-0.0186,-0.0197,-0.02,-0.0203,-0.0233,-0.0235,-0.0238,-0.0226,-0.0227,-0.0209,-0.0209,-0.0209,0,0.0107,0.0099,0.0079,0.0074,0.0071,0.0049,0.0049,0.0036,0.0004,-0.0001,-0.0022,-0.0084,-0.0119,-0.0156,-0.0177,-0.0188,-0.0194,-0.0196,-0.0234,-0.0236,-0.0239,-0.0226,-0.0228,-0.0209,-0.0209,-0.0209,-0.0209,0,0.0106,0.0103,0.0097,0.0088,0.008,0.0075,0.0059,0.0047,0.0031,0.0018,-0.0019,-0.0074,-0.0113,-0.0141,-0.0168,-0.0212,-0.0204,-0.0225,-0.0228,-0.0242,-0.0228,-0.0229,-0.0209,-0.0209,-0.0209,-0.0209,0,0,0.0117,0.0102,0.0103,0.0107,0.009,0.0086,0.008,0.0073,0.0079,0.003,0.0025,-0.0051,-0.0086,-0.0109,-0.0161,-0.0204,-0.0235,-0.023,-0.0232,-0.0213,-0.0273,-0.022,-0.0216,-0.0271,-0.0272,-0.0272,-0.0249,0,0.0128,0.013,0.0117,0.0125,0.0127,0.0111,0.0113,0.0103,0.0091,0.0079,0.0019,-0.0008,-0.0071,-0.0102,-0.0156,-0.0211,-0.0243,-0.0237,-0.0267,-0.0266,-0.0214,-0.0218,-0.0196,-0.0171,-0.0251,-0.0251,-0.0251,0,0.0138,0.0139,0.0149,0.0154,0.0154,0.0158,0.0166,0.0163,0.0147,0.0134,0.0089,0.0048,-0.0024,-0.0075,-0.017,-0.0166,-0.0219,-0.0262,-0.0263,-0.0213,-0.0217,-0.0175,-0.0171,-0.0254,-0.0254,-0.0254,-0.0253,0,0.0166,0.0166,0.0179,0.0179,0.0177,0.0186,0.0188,0.0183,0.0194,0.0168,0.017,0.0088,0.0054,-0.0037,-0.0128,-0.0158,-0.0208,-0.0255,-0.0246,-0.0241,-0.0226,-0.0219,-0.0314,-0.0314,-0.0314,-0.0314,-0.0314,0,0.0186,0.0198,0.0197,0.0206,0.0231,0.0218,0.0248,0.024,0.0242,0.0269,0.0196,0.0198,0.0055,0.0009,-0.009,-0.015,-0.0174,-0.0233,-0.0237,-0.0222,-0.0215,-0.0296,-0.0295,-0.0313,-0.0313,-0.0314,-0.0314,0,0.0214,0.0211,0.023,0.0238,0.0246,0.0265,0.029,0.0312,0.0308,0.0341,0.0332,0.0282,0.0232,0.0124,0.0003,-0.0077,-0.0155,-0.017,-0.0117,-0.0115,-0.0178,-0.0176,-0.0165,-0.0163,-0.0161,-0.016,-0.0159,0,0.0227,0.0239,0.026,0.0277,0.0284,0.0312,0.0336,0.0342,0.0372,0.0403,0.0424,0.0394,0.0385,0.0261,0.0121,0.0004,-0.0063,-0.0059,-0.0124,-0.016,-0.0165,-0.0166,-0.0167,-0.0099,-0.0097,-0.0096,-0.0095,0,0.0254,0.0262,0.0277,0.0314,0.0343,0.0377,0.0415,0.0451,0.0475,0.0514,0.0565,0.0566,0.0478,0.0367,0.0219,0.0127,-0.0043,-0.0035,-0.0096,-0.0132,-0.0094,-0.01,-0.0104,-0.0083,-0.0085,-0.0085,-0.0086,-0.0087,0.0277,0.0292,0.0314,0.0349,0.0385,0.0434,0.0469,0.0523,0.0585,0.0633,0.0655,0.065,0.0545,0.0353,0.0232,0.0086,0.0076,-0.0015,-0.0021,-0.0028,-0.0018,0.0022,0.0059,0.0059,0.0058,0.0058,0.0058,0,0.0299,0.0315,0.0347,0.0387,0.0425,0.0443,0.0515,0.0545,0.0627,0.0671,0.0709,0.0605,0.0517,0.0384,0.0197,0.0088,0.0036,0.0034,-0.0015,-0.0023,-0.0031,-0.0024,0.0052,0.0051,0.0051,0.005,0,0,0.0311,0.0338,0.0349,0.0408,0.0441,0.0492,0.0533,0.0587,0.0625,0.0656,0.0655,0.0655,0.0539,0.0388,0.026,0.0153,0.0073,0.0122,0.0145,0.0096,0.0088,-0.003,-0.0023,0,0,0,0,0]}],[{"header":{"parameterUnit":"m.s-1","parameterCategory":2,"la1":30.2991,"la2":30.254,"lo1":-89.0895,"lo2":-89.0444,"dy":0.0017,"dx":0.0017,"nx":28,"ny":28,"refTime":"2023-10-05T09:00:00:Z","depth":"4","parameterNumber":2,"parameterNumberName":"U-component_of_CURRENTS"},"data":[0,0,0,0,0,0,0,0,0,0,0,0,0,0,0,0,0,0,0,0,0,0,0,0,0,0,0,0,0,0,0,0,0,0,0,0,0,0,0,0,0,0,0,0,0,0,0,0,0,0,0,0,0,0,0,0,0,0,0.0986,0.0986,0,0.096,0.096,0.0959,0.0948,0.0949,0.0949,0.095,0.0959,0.0959,0.0958,0,0,0,0,0,0,0,0,0,0,0,0,0,0.096,0.096,0.0986,0.0986,0.0987,0.096,0.096,0.0959,0.0948,0.0949,0.0949,0.095,0.0959,0.0959,0.0958,0,0,0,0,0,0,0,0,0,0,0,0,0,0.0952,0.0961,0.0986,0.0982,0.0981,0.0961,0.096,0.0959,0.0948,0.0949,0.095,0.095,0.0959,0.0959,0.0958,0.0942,0,0,0.0957,0.0957,0,0,0,0,0,0,0,0,0.0953,0.0952,0.0982,0.0982,0.0982,0.0962,0.0954,0.0956,0.0948,0.0956,0.095,0.0951,0.0966,0.0965,0.0951,0.0942,0.0942,0.0957,0.0957,0.0957,0.0957,0,0,0,0,0,0,0,0.0953,0.0953,0.0971,0.0982,0.0982,0.0958,0.0958,0.0953,0.0954,0.0955,0.0955,0.096,0.0965,0.0951,0.0952,0.0942,0.0957,0.0957,0.0957,0.0957,0.0994,0.0995,0,0,0,0,0,0,0.0969,0.0954,0.0972,0.0971,0.0974,0.0959,0.0958,0.0964,0.0953,0.0953,0.0959,0.0959,0.0952,0.0952,0.0952,0.0988,0.0957,0.0957,0.0956,0.0993,0.0994,0.0995,0,0,0,0,0,0,0.0968,0.0971,0.0973,0.0965,0.0965,0.0959,0.0965,0.0963,0.0975,0.0957,0.0957,0.0977,0.0952,0.0952,0.0969,0.0986,0.0956,0.0956,0.0991,0.0993,0.0995,0.1024,0,0,0,0,0,0,0.0967,0.097,0.0986,0.0967,0.0966,0.0981,0.0965,0.0962,0.0978,0.0978,0.0972,0.0972,0.0953,0.0969,0.0968,0.0985,0.0956,0.099,0.0992,0.0994,0.1022,0.1027,0.1031,0,0,0,0,0,0.0967,0.0981,0.0987,0.099,0.0986,0.0982,0.0979,0.0973,0.0978,0.0986,0.0984,0.0973,0.0983,0.097,0.0968,0.0986,0.0989,0.0991,0.0994,0.102,0.1026,0.1031,0,0,0,0,0,0,0.0976,0.0981,0.0987,0.1003,0.1005,0.0983,0.0991,0.0991,0.0992,0.1,0.0982,0.0982,0.1006,0.0995,0.0981,0.1006,0.0987,0.0989,0.1007,0.1012,0.1017,0.1028,0.0956,0,0,0,0,0,0.0988,0.1003,0.1001,0.1017,0.1021,0.1013,0.1015,0.1014,0.101,0.1012,0.1008,0.1008,0.101,0.1013,0.1012,0.1021,0.1025,0.1035,0.104,0.1043,0.1053,0.1079,0.1087,0.1004,0.1004,0.1004,0,0,0.0998,0.1003,0.1013,0.1022,0.1021,0.1022,0.1015,0.1027,0.1028,0.1013,0.1023,0.1029,0.1019,0.1028,0.1038,0.1024,0.1068,0.1047,0.105,0.1058,0.1083,0.1091,0.1098,0.1006,0.1006,0.1005,0,0,0.1012,0.103,0.1042,0.1045,0.1056,0.1048,0.1062,0.1057,0.1059,0.107,0.1062,0.1079,0.1079,0.107,0.1066,0.1099,0.1097,0.1109,0.1133,0.1158,0.1165,0.1171,0.118,0.1187,0.1105,0.1105,0.1105,0,0.1025,0.1038,0.1046,0.1052,0.1057,0.1065,0.1071,0.1069,0.1072,0.1074,0.1084,0.1097,0.1094,0.1098,0.1115,0.1108,0.1124,0.1108,0.1163,0.117,0.1175,0.1183,0.119,0.1107,0.1106,0.1106,0.1106,0,0.1035,0.1052,0.106,0.1071,0.1076,0.1087,0.1087,0.1099,0.1111,0.1106,0.1132,0.1133,0.1143,0.1147,0.1142,0.118,0.1179,0.117,0.1146,0.1185,0.1191,0.1198,0.1109,0.1108,0.1108,0.1108,0,0,0.1041,0.1063,0.1068,0.1075,0.1089,0.109,0.1102,0.1106,0.1115,0.1134,0.1149,0.1164,0.1183,0.1182,0.1185,0.1208,0.1261,0.1218,0.1218,0.1222,0.1319,0.1225,0.1223,0.1271,0.1273,0.1274,0.1304,0,0.1047,0.1064,0.1072,0.1087,0.1093,0.1103,0.1109,0.1116,0.1129,0.1147,0.1162,0.1184,0.1188,0.1212,0.1238,0.1258,0.1283,0.1254,0.1285,0.1286,0.1194,0.1229,0.1279,0.1309,0.1311,0.1312,0.1312,0,0.1045,0.1058,0.1077,0.1092,0.1096,0.1108,0.1124,0.1131,0.1151,0.1166,0.1196,0.1213,0.1252,0.126,0.1312,0.13,0.1324,0.1336,0.1337,0.1245,0.1204,0.1265,0.1325,0.1324,0.1323,0.1322,0.1321,0,0.1031,0.1056,0.1074,0.108,0.1099,0.1113,0.1126,0.1142,0.1146,0.1192,0.1213,0.1251,0.1285,0.1324,0.1353,0.1349,0.1409,0.1393,0.1325,0.1318,0.138,0.1373,0.1443,0.1443,0.1443,0.1443,0.1443,0,0.1018,0.1033,0.1076,0.1082,0.1101,0.1117,0.1135,0.1153,0.118,0.1183,0.1234,0.1245,0.1313,0.1345,0.137,0.1362,0.142,0.1338,0.1324,0.1391,0.1385,0.1384,0.1377,0.1444,0.1444,0.1443,0.1443,0,0.0993,0.1023,0.1045,0.1083,0.1096,0.1111,0.1138,0.1143,0.1183,0.1196,0.1218,0.126,0.1295,0.1341,0.1396,0.1366,0.1376,0.1363,0.1431,0.1418,0.1265,0.1259,0.1282,0.1279,0.1277,0.1274,0.1273,0,0.0977,0.0991,0.1045,0.1059,0.1081,0.1106,0.1114,0.1145,0.1143,0.1181,0.1177,0.1232,0.1255,0.1248,0.1306,0.1335,0.1329,0.1325,0.1299,0.1267,0.1251,0.1249,0.1247,0.1269,0.1268,0.1267,0.1267,0,0.0948,0.0983,0.1004,0.1038,0.1059,0.1063,0.1079,0.1067,0.1089,0.1141,0.1111,0.1122,0.1153,0.118,0.1219,0.1236,0.1318,0.1298,0.1303,0.1279,0.1251,0.1237,0.1238,0.1258,0.1259,0.126,0.126,0,0.0934,0.0943,0.0982,0.0997,0.1026,0.1006,0.1016,0.0999,0.0998,0.1033,0.1017,0.1071,0.1124,0.1128,0.1155,0.1171,0.1157,0.1127,0.1141,0.1151,0.1096,0.104,0.0975,0,0,0,0,0,0.0909,0.091,0.093,0.0935,0.096,0.097,0.0981,0.0986,0.1007,0.0961,0.0981,0.0998,0.1014,0.104,0.1035,0.1116,0.1178,0.1104,0.1153,0.1209,0.1219,0.1167,0,0,0,0,0,0,0.0893,0.0916,0.0913,0.0881,0.0872,0.0878,0.0883,0.0896,0.0863,0.0898,0.0913,0.0949,0.0988,0.1018,0.102,0.1033,0.1045,0.1143,0.1141,0.1204,0.1213,0.1221,0.1171,0,0,0,0,0]},{"header":{"parameterUnit":"m.s-1","parameterCategory":2,"la1":30.2991,"la2":30.254,"lo1":-89.0895,"lo2":-89.0444,"dy":0.0017,"dx":0.0017,"nx":28,"ny":28,"refTime":"2023-10-05T09:00:00:Z","depth":"4","parameterNumber":3,"parameterNumberName":"V-component_of_CURRENTS"},"data":[0,0,0,0,0,0,0,0,0,0,0,0,0,0,0,0,0,0,0,0,0,0,0,0,0,0,0,0,0,0,0,0,0,0,0,0,0,0,0,0,0,0,0,0,0,0,0,0,0,0,0,0,0,0,0,0,0,0,0.0123,0.0123,0,0.0118,0.0118,0.0118,0.0125,0.0125,0.0125,0.0125,0.013,0.013,0.013,0,0,0,0,0,0,0,0,0,0,0,0,0,0.0145,0.0144,0.0123,0.0123,0.0123,0.0118,0.0118,0.0118,0.0125,0.0125,0.0125,0.0125,0.013,0.013,0.013,0,0,0,0,0,0,0,0,0,0,0,0,0,0.0138,0.0144,0.0123,0.0125,0.0125,0.0118,0.0118,0.0118,0.0125,0.0125,0.0125,0.0125,0.013,0.013,0.013,0.0125,0,0,0.013,0.013,0,0,0,0,0,0,0,0,0.0138,0.0137,0.0125,0.0125,0.0125,0.0122,0.0128,0.0121,0.0125,0.0125,0.0125,0.0125,0.0128,0.0128,0.0127,0.0125,0.0125,0.013,0.013,0.013,0.013,0,0,0,0,0,0,0,0.0139,0.0137,0.0122,0.0124,0.0125,0.0129,0.0128,0.0127,0.0126,0.0125,0.0126,0.0124,0.0128,0.0127,0.0127,0.0125,0.013,0.013,0.013,0.013,0.0148,0.0149,0,0,0,0,0,0,0.0137,0.0138,0.0122,0.0121,0.0132,0.0128,0.0127,0.0123,0.0125,0.0126,0.0124,0.0124,0.0127,0.0127,0.0128,0.0149,0.013,0.013,0.013,0.0148,0.0148,0.0149,0,0,0,0,0,0,0.0138,0.0136,0.0122,0.0129,0.0128,0.0127,0.0122,0.0123,0.0125,0.0124,0.0125,0.0126,0.0127,0.0128,0.0137,0.0148,0.013,0.013,0.0147,0.0148,0.0149,0.0174,0,0,0,0,0,0,0.0138,0.0136,0.0135,0.0129,0.0127,0.0119,0.0122,0.0122,0.0123,0.0124,0.0126,0.0127,0.0128,0.0137,0.0137,0.0148,0.013,0.0147,0.0148,0.0149,0.0172,0.0175,0.0178,0,0,0,0,0,0.0139,0.0135,0.0135,0.0134,0.0125,0.0119,0.0118,0.0119,0.0123,0.0122,0.0132,0.0127,0.0143,0.0138,0.0137,0.0148,0.0146,0.0147,0.0148,0.0171,0.0175,0.0178,0,0,0,0,0,0,0.0144,0.0135,0.0135,0.0128,0.0125,0.012,0.0119,0.012,0.0126,0.0129,0.0132,0.0133,0.0146,0.0143,0.0136,0.0157,0.0144,0.0145,0.0161,0.0165,0.0168,0.0169,0.013,0,0,0,0,0,0.0144,0.0138,0.0132,0.0127,0.0126,0.0124,0.0122,0.0122,0.0124,0.0127,0.013,0.0138,0.0149,0.0154,0.0158,0.0167,0.0155,0.0174,0.0176,0.0179,0.018,0.018,0.0183,0.0153,0.0153,0.0153,0,0,0.0144,0.0139,0.0136,0.0128,0.0126,0.0127,0.0124,0.012,0.0128,0.0126,0.014,0.0145,0.0153,0.0168,0.0173,0.0168,0.0179,0.018,0.0182,0.0182,0.0181,0.0184,0.0187,0.0154,0.0153,0.0153,0,0,0.0141,0.0137,0.0133,0.0132,0.0128,0.0128,0.0128,0.0125,0.0131,0.014,0.0149,0.0163,0.0168,0.0185,0.0193,0.0212,0.0193,0.0211,0.0227,0.0227,0.023,0.0232,0.0209,0.0208,0.0213,0.0214,0.0214,0,0.0144,0.0139,0.0132,0.0131,0.0135,0.013,0.0134,0.0138,0.0141,0.0153,0.0146,0.0176,0.018,0.0214,0.0221,0.022,0.0205,0.0215,0.0231,0.0233,0.0234,0.021,0.021,0.0215,0.0215,0.0215,0.0214,0,0.014,0.014,0.0138,0.0139,0.0141,0.0142,0.0148,0.0155,0.0161,0.0168,0.0195,0.0204,0.0224,0.0229,0.023,0.0252,0.0232,0.0233,0.0222,0.0239,0.0212,0.0211,0.0217,0.0216,0.0216,0.0216,0,0,0.0138,0.0136,0.0138,0.0146,0.0148,0.0151,0.0167,0.0184,0.0205,0.0207,0.0237,0.0256,0.0259,0.0269,0.0276,0.0277,0.0271,0.0258,0.0258,0.0234,0.025,0.0218,0.0213,0.0273,0.0273,0.0274,0.0223,0,0.0141,0.0145,0.0144,0.0159,0.0165,0.0173,0.0192,0.0208,0.0223,0.0248,0.0264,0.0289,0.0276,0.0292,0.0291,0.0282,0.0271,0.0284,0.0239,0.0237,0.0206,0.0213,0.0275,0.0222,0.0221,0.0221,0.0221,0,0.0142,0.0146,0.0158,0.0179,0.0184,0.0195,0.0232,0.0247,0.0279,0.0293,0.0316,0.0324,0.034,0.0323,0.0305,0.0311,0.0279,0.0263,0.0261,0.0222,0.0204,0.0204,0.0219,0.0219,0.0219,0.0219,0.0219,0,0.0152,0.0161,0.0175,0.018,0.0199,0.0216,0.0231,0.0262,0.029,0.0323,0.0345,0.0358,0.0371,0.0341,0.0303,0.0303,0.0268,0.0266,0.0203,0.0199,0.0232,0.023,0.0242,0.0242,0.0242,0.0243,0.0243,0,0.0159,0.0172,0.0181,0.019,0.0219,0.0228,0.0268,0.0286,0.0325,0.0362,0.037,0.0397,0.0376,0.0356,0.031,0.0249,0.027,0.0202,0.0188,0.0241,0.0241,0.023,0.0229,0.0241,0.0241,0.0241,0.0242,0,0.0169,0.0172,0.0192,0.0214,0.0224,0.0246,0.0289,0.032,0.0348,0.0397,0.0411,0.0427,0.0398,0.036,0.0311,0.0259,0.0205,0.0175,0.0219,0.021,0.0129,0.0131,0.0099,0.0098,0.0097,0.0095,0.0095,0,0.0174,0.0184,0.0211,0.0227,0.0237,0.027,0.0298,0.0332,0.0366,0.0414,0.0439,0.0432,0.043,0.0335,0.0285,0.0187,0.0173,0.0129,0.0141,0.0127,0.0117,0.012,0.0123,0.0093,0.0092,0.0092,0.0092,0,0.0187,0.0197,0.0214,0.0244,0.0272,0.0307,0.0346,0.0373,0.0416,0.0443,0.0461,0.0426,0.0392,0.0326,0.025,0.0182,0.0153,0.0116,0.0118,0.0129,0.0119,0.0111,0.0115,0.0087,0.0088,0.0088,0.0089,0,0.0201,0.0213,0.0234,0.0261,0.0297,0.0333,0.0354,0.0388,0.0421,0.0467,0.0467,0.0439,0.0427,0.0322,0.0253,0.0182,0.0162,0.0127,0.0128,0.0132,0.0157,0.0151,0.0116,0,0,0,0,0,0.021,0.0221,0.0248,0.0276,0.0312,0.0331,0.0383,0.0404,0.0442,0.0454,0.0462,0.0429,0.0339,0.0308,0.0231,0.0221,0.0143,0.0125,0.0102,0.0064,0.0069,0.0091,0,0,0,0,0,0,0.0215,0.0238,0.0246,0.0284,0.0303,0.0344,0.0376,0.0402,0.0411,0.0438,0.0397,0.0385,0.0303,0.038,0.0221,0.0202,0.0169,0.0091,0.0088,0.0061,0.0065,0.0069,0.0094,0,0,0,0,0]}]]